Location: Baix
(44.7118°N, 4.7648°E)
Time: 01:11:38
(UTC+00:00)

Okean 1 Rocket - Pass Details

Date: 07 August 2020
Orbit: 607 x 633 km, 82.5° (Epoch: 19 September)

Event Time Altitude Azimuth Distance (km) Brightness Sun altitude
Exits shadow 01:01:02 36° 86° (E) 973 4.2 -26.7°
Drops below altitude 10° 01:04:51 10° 25° (NNE) 1,973 6.6 -26.4°
Sets 01:07:12 0° 17° (NNE) 2,886 7.8 -26.3°
